SL-14 DEB, 45323

Orbit data source: Space-Track

SL-14 DEB, 45323 is space debris in LEO originally from a launch on Thu, 15 Aug 1991 UTC launched from the Plesetsk Missile And Space Complex (PKMTR). Debris objects in space refer to the collection of defunct objects orbiting the Earth. Examples of debris include non-operational satellites, rocket bodies, and fragments generated from explosions, collisions, or faulty payload assembly.

Loading next visibility...
Identifier
45323, 1991-056BM
Orbit
LEO
Last TLE update
1 day ago
Origin
Manufacturer
Unknown
Mission
Spacecraft
Bus & Motor
Unknown
Mass
Unknown
Launch date (UTC)
1991-08-15 (34 years ago)
Launch vehicle
Unknown
Launch site
Plesetsk Missile And Space Complex (PKMTR)
Object type
Payload
Rocket body
Debris
Shape & HBR
Unknown
Radar Cross Section
Small (<0.1 m²)

Expand to show TLE details & history

TLE from 1 day ago
0 SL-14 DEB
1 45323U 91056BM  25128.25974617  .00000740  00000-0  17983-2 0  9998
2 45323  82.5303  56.0228 0008155  21.8828 338.2643 13.20418081249946
Epoch: 2025-05-08T06:14Z
Definitive object data (Epoch: 2025-05-08T06:14:02.069Z)
Latitude
Longitude
96.18138°
Altitude
1,180.207 km
Speed
7.266 km/s
True Right ascension
03h 44m 05s
True Declination
0° 00' 00"
Sunlit
Object was in daylight at TLE epoch
Visualization TLE readout
Latitude
-82.5423°
Longitude
10.13366°
Altitude
1,213.461 km
Speed
7.246 km/s
Apparent Right ascension
04h 26m 40s
Apparent Declination
-67° 58' 14"
Sunlit
Object is in daylight
Visualization observer readout
Local Sidereal Time
17:12:54
Azimuth
171.014° S
Elevation
-61.243°
Doppler factor
1
Orbital elements
Apogee altitude
1,186.528 km
Perigee altitude
1,174.2 km
Semi-major axis
7,558.501 km
Eccentricity
0.0008155
Inclination
82.5303°
RAAN
56.0228°
Arg. of periapsis
21.8828°
True anomaly
338.22966°
Mean anomaly
338.2643°
Eccentric anomaly
338.24698°
Mean motion
3.30286 °/min
BSTAR
0.0017983
Orbital period
109 mins
Loading maneuver chart data...
Loading SW <> Apogee altitude chart data...
Loading historical data...
Loading historical data...
Loading historical data...
Loading historical data...
Loading historical data...
Loading historical data...
Loading historical data...

SL-14 DEB Visibility forecast

Observer location: undefined°, undefined°

Span
Click to sort rows by Start time (UTC) header in descending order
Start Az.
Max El. time (UTC)
Max El. Az.
Max El.
End time (UTC)
End Az.
11 mins2025-05-09 18:42:38.179Z142.958° SSE2025-05-09 18:48:38.179Z82.393° E27.404°2025-05-09 18:53:38.179Z31.656° NE
12 mins2025-05-09 20:32:38.179Z217.439° SW2025-05-09 20:37:38.179Z274.443° WNW35.126°2025-05-09 20:44:38.179Z354.759° N
11 mins2025-05-10 06:07:38.179Z12.173° NNE2025-05-10 06:12:38.179Z73.091° E34.321°2025-05-10 06:18:38.179Z142.45° SSE
11 mins2025-05-10 07:57:38.179Z326.867° NNW2025-05-10 08:02:38.179Z270.918° WNW28.66°2025-05-10 08:08:38.179Z213.623° SW
|